Weather History for EIDW - June, 2014

Change the Weather History Date:

Monday, June 23, 2014

  Actual Average Record
Temperature  
Mean Temperature 58 °F -  
Max Temperature 69 °F 65 °F 69 °F (2010)
Min Temperature 46 °F 52 °F 38 °F (2015)
Degree Days  
Heating Degree Days 8    
Growing Degree Days 8 (Base 50)    
Moisture  
Dew Point 50 °F    
Average Humidity 68    
Maximum Humidity 94    
Minimum Humidity 35    
Precipitation  
Precipitation 0.00 in 0.07 in - ()
Sea Level Pressure  
Sea Level Pressure 30.26 in    
Wind  
Wind Speed 5 mph ()    
Max Wind Speed 11 mph    
Max Gust Speed -    
Visibility 6.2 miles    
Events      
Averages and records for this station are not official NWS values.
T = Trace of Precipitation, MM = Missing Value Source: Averaged Metar Reports

Daily Weather History Graph

Daily Weather History Graph

Search for Another Location

Airport or City:

Trip Planner

Search our weather history database for the weather conditions in past years. The results will help you decide how hot, cold, wet, or windy it might be!

Date:

Astronomy

Jun. 23, 2014 Rise Set
Actual Time 4:56 AM IST 9:57 PM IST
Civil Twilight 4:04 AM IST 10:50 PM IST
Nautical Twilight 2:28 AM IST 12:25 AM IST
Astronomical Twilight Sun does not set Sun does not set
Moon 2:42 AM IST (6/23) 6:01 PM IST (6/23)
Length of Visible Light 18h 46m
Length of Day
17h 01m
Waning Crescent, 14% of the Moon is Illuminated
Jun 23
Waning Crescent
Jun 27
New
Jul 5
First Quarter
Jul 12
Full
Jul 19
Last Quarter

Hourly Weather History & Observations

Time (IST) Temp. Windchill Dew Point Humidity Pressure Visibility Wind Dir Wind Speed Gust Speed Precip Events Conditions
12:00 AM 54 °F - 50 °F 82% 30.28 in 31 mi NW 4.5 mph - -   Mostly Cloudy
12:00 AM 53.6 °F - 50.0 °F 88% 30.27 in 6.2 mi Variable 2.3 mph - N/A   Mostly Cloudy
12:30 AM 53.6 °F - 51.8 °F 94% 30.27 in 6.2 mi WNW 3.5 mph - N/A   Mostly Cloudy
1:00 AM 56 °F - 52 °F 80% 30.27 in 25 mi NNW 6.7 mph - -   Mostly Cloudy
1:00 AM 57.2 °F - 51.8 °F 82% 30.27 in 6.2 mi NNW 5.8 mph - N/A   Mostly Cloudy
1:30 AM 57.2 °F - 51.8 °F 82% 30.27 in 6.2 mi North 5.8 mph - N/A   Mostly Cloudy
2:00 AM 56 °F - 51 °F 77% 30.27 in 25 mi North 6.7 mph - -   Mostly Cloudy
2:00 AM 57.2 °F - 51.8 °F 82% 30.27 in 6.2 mi North 5.8 mph - N/A   Mostly Cloudy
2:30 AM 55.4 °F - 50.0 °F 82% 30.27 in 6.2 mi North 6.9 mph - N/A   Mostly Cloudy
3:00 AM 54 °F - 50 °F 81% 30.28 in 25 mi North 6.7 mph - -   Partly Cloudy
3:00 AM 53.6 °F - 50.0 °F 88% 30.27 in 6.2 mi North 6.9 mph - N/A   Mostly Cloudy
3:30 AM 53.6 °F - 50.0 °F 88% 30.27 in 6.2 mi North 4.6 mph - N/A   Mostly Cloudy
4:00 AM 53 °F - 49 °F 84% 30.28 in 37 mi North 6.7 mph - -   Scattered Clouds
4:00 AM 53.6 °F - 50.0 °F 88% 30.27 in - North 5.8 mph - N/A   Clear
4:30 AM 50.0 °F - 48.2 °F 94% 30.24 in 6.2 mi NNW 5.8 mph - N/A   Mostly Cloudy
5:00 AM 49 °F - 46 °F 87% 30.27 in 37 mi NNW 6.7 mph - -   Scattered Clouds
5:00 AM 50.0 °F - 46.4 °F 87% 30.24 in 6.2 mi NNW 5.8 mph - N/A   Partly Cloudy
5:30 AM 46.4 °F 45.2 °F 44.6 °F 93% 30.27 in 6.2 mi NW 3.5 mph - N/A   Partly Cloudy
6:00 AM 51 °F - 49 °F 88% 30.28 in 37 mi NW 4.5 mph - -   Scattered Clouds
6:00 AM 50.0 °F - 48.2 °F 94% 30.27 in 6.2 mi NW 4.6 mph - N/A   Partly Cloudy
6:30 AM 53.6 °F - 50.0 °F 88% 30.27 in 6.2 mi NNW 4.6 mph - N/A   Partly Cloudy
7:00 AM 55 °F - 51 °F 81% 30.28 in 37 mi NNW 4.5 mph - -   Clear
7:00 AM 55.4 °F - 51.8 °F 88% 30.27 in - NNW 4.6 mph - N/A   Clear
7:30 AM 57.2 °F - 50.0 °F 77% 30.27 in - NNW 6.9 mph - N/A   Clear
8:00 AM 59 °F - 51 °F 67% 30.30 in 37 mi North 6.7 mph - -   Clear
8:00 AM 59.0 °F - 50.0 °F 72% 30.27 in - NNW 5.8 mph - N/A   Clear
8:30 AM 60.8 °F - 50.0 °F 68% 30.30 in - North 6.9 mph - N/A   Clear
9:00 AM 62 °F - 47 °F 48% 30.30 in 37 mi North 6.7 mph - -   Clear
9:00 AM 62.6 °F - 48.2 °F 59% 30.27 in - North 6.9 mph - N/A   Clear
9:30 AM 62.6 °F - 46.4 °F 55% 30.27 in - North 6.9 mph - N/A   Clear
10:00 AM 65 °F - 48 °F 43% 30.30 in 37 mi North 8.9 mph - -   Clear
10:00 AM 64.4 °F - 48.2 °F 56% 30.27 in - North 10.4 mph - N/A   Clear
10:30 AM 64.4 °F - 48.2 °F 56% 30.27 in 6.2 mi North 10.4 mph - N/A   Scattered Clouds
11:00 AM 66 °F - 48 °F 41% 30.28 in 37 mi North 11.2 mph - -   Scattered Clouds
11:00 AM 66.2 °F - 48.2 °F 52% 30.27 in 6.2 mi North 10.4 mph - N/A   Scattered Clouds
11:30 AM 66.2 °F - 48.2 °F 52% 30.27 in 6.2 mi NNE 8.1 mph - N/A   Scattered Clouds
12:00 PM 67 °F - 50 °F 44% 30.28 in 37 mi NNE 8.9 mph - -   Scattered Clouds
12:00 PM 68.0 °F - 50.0 °F 52% 30.27 in 6.2 mi North 8.1 mph - N/A   Scattered Clouds
12:30 PM 66.2 °F - 46.4 °F 49% 30.27 in 6.2 mi NNW 6.9 mph - N/A   Scattered Clouds
1:00 PM 67 °F - 47 °F 37% 30.27 in 37 mi North 6.7 mph - -   Partly Cloudy
1:00 PM 68.0 °F - 48.2 °F 49% 30.27 in 6.2 mi North 5.8 mph - N/A   Scattered Clouds
1:30 PM 69.8 °F - 50.0 °F 49% 30.27 in 6.2 mi East 6.9 mph - N/A   Scattered Clouds
2:00 PM 67 °F - 51 °F 46% 30.27 in 37 mi ESE 4.5 mph - -   Partly Cloudy
2:00 PM 66.2 °F - 50.0 °F 56% 30.27 in 6.2 mi ESE 4.6 mph - N/A   Scattered Clouds
2:30 PM 68.0 °F - 48.2 °F 49% 30.27 in 6.2 mi Variable 3.5 mph - N/A   Scattered Clouds
3:00 PM 68 °F - 50 °F 41% 30.26 in 37 mi North 4.5 mph - -   Partly Cloudy
3:00 PM 68.0 °F - 48.2 °F 49% 30.24 in 6.2 mi NNE 4.6 mph - N/A   Scattered Clouds
3:30 PM 68.0 °F - 50.0 °F 52% 30.24 in 6.2 mi ESE 5.8 mph - N/A   Scattered Clouds
4:00 PM 69 °F - 48 °F 35% 30.25 in 37 mi ESE 4.5 mph - -   Partly Cloudy
4:00 PM 68.0 °F - 50.0 °F 52% 30.24 in 6.2 mi Variable 3.5 mph - N/A   Scattered Clouds
4:30 PM 68.0 °F - 50.0 °F 52% 30.24 in 6.2 mi East 5.8 mph - N/A   Scattered Clouds
5:00 PM 65 °F - 51 °F 52% 30.26 in 37 mi East 6.7 mph - -   Mostly Cloudy
5:00 PM 64.4 °F - 51.8 °F 64% 30.24 in 6.2 mi East 8.1 mph - N/A   Mostly Cloudy
5:30 PM 64.4 °F - 51.8 °F 64% 30.24 in 6.2 mi NE 8.1 mph - N/A   Mostly Cloudy
6:00 PM 65 °F - 52 °F 54% 30.25 in 37 mi NE 6.7 mph - -   Mostly Cloudy
6:00 PM 66.2 °F - 51.8 °F 60% 30.24 in 6.2 mi NE 6.9 mph - N/A   Mostly Cloudy
6:30 PM 64.4 °F - 51.8 °F 64% 30.24 in 6.2 mi NNE 4.6 mph - N/A   Mostly Cloudy
7:00 PM 64 °F - 54 °F 61% 30.26 in 31 mi North 6.7 mph - -   Mostly Cloudy
7:00 PM 64.4 °F - 53.6 °F 68% 30.24 in 6.2 mi North 5.8 mph - N/A   Mostly Cloudy
7:30 PM 64.4 °F - 53.6 °F 68% 30.24 in 6.2 mi North 4.6 mph - N/A   Mostly Cloudy
8:00 PM 64 °F - 55 °F 64% 30.26 in 31 mi North 8.9 mph - -   Mostly Cloudy
8:00 PM 64.4 °F - 55.4 °F 73% 30.24 in 6.2 mi NNW 6.9 mph - N/A   Mostly Cloudy
8:30 PM 62.6 °F - 53.6 °F 72% 30.24 in 6.2 mi NNE 8.1 mph - N/A   Mostly Cloudy
9:00 PM 61 °F - 53 °F 68% 30.26 in 31 mi North 6.7 mph - -   Mostly Cloudy
9:00 PM 60.8 °F - 53.6 °F 77% 30.24 in 6.2 mi North 5.8 mph - N/A   Mostly Cloudy
9:30 PM 60.8 °F - 53.6 °F 77% 30.24 in 6.2 mi North 4.6 mph - N/A   Scattered Clouds
10:00 PM 60 °F - 52 °F 67% 30.26 in 31 mi ENE 6.7 mph - -   Partly Cloudy
10:00 PM 59.0 °F - 51.8 °F 77% 30.24 in 6.2 mi ENE 5.8 mph - N/A   Scattered Clouds
11:00 PM 58 °F - 52 °F 76% 30.27 in 31 mi North 4.5 mph - -   Scattered Clouds
11:00 PM 59.0 °F - 51.8 °F 77% 30.24 in 6.2 mi Variable 3.5 mph - N/A   Partly Cloudy
11:30 PM 53.6 °F - 50.0 °F 88% 30.24 in 6.2 mi East 6.9 mph - N/A   Partly Cloudy